Pasco, WA
on Thursday, February 21, 2013

Thursday
Previous Day Next Day
Daily Summary
 ActualAverageRecord
Temperature
Mean Temperature °F 40°F  
Max Temperature 50°F 51°F 68°F (1995)
Min Temperature 21°F 29°F 10°F (1993)
Degree Days
Heating Degree Days 29 25  
Month to date heating degree days 550 563  
Since 1 July heating degree days 3461 3714  
Cooling Degree Days 0 0  
Month to date cooling degree days 0 0  
Year to date cooling degree days 0 0  
Moisture
Dew Point 28°F   
Average Humidity 71    
Maximum Humidity 96    
Minimum Humidity 46    
Precipitation
Precipitation T in in 0.70 in (1956)
Month to date precipitation T  
Year to date precipitation 0.36  
Snow
Snow 0.00 in in in ()
Snow Depth 0.00 in   
Wind
Wind Speed 8 mph   
Max Wind Speed 29 mph   
Max Gust Speed 35 mph   
Visibility 10 miles   
Events     

Key: T is trace of precipitation, MM is missing value
Source: NWS Daily Summary
Time(PST)TemperatureDew PointHumidity Pressure Visibility Wind DirectionWind SpeedGust SpeedPrecipitationEvents Conditions
12:53 AM 23.0°F 21.0°F 92% 30.04 in 10.0 miles Calm Calm - N/A   Clear
1:53 AM 24.1°F 21.9°F 91% 30.05 in 10.0 miles Calm Calm - N/A   Clear
2:53 AM 21.9°F 19.9°F 92% 30.04 in 10.0 miles NE 3.5 mph - N/A   Clear
3:53 AM 23.0°F 19.9°F 88% 30.06 in 10.0 miles NW 3.5 mph - N/A   Clear
4:53 AM 24.1°F 21.0°F 88% 30.06 in 10.0 miles East 4.6 mph - N/A   Scattered Clouds
5:53 AM 26.1°F 24.1°F 92% 30.06 in 10.0 miles ENE 3.5 mph - N/A   Clear
6:53 AM 24.1°F 21.9°F 91% 30.05 in 10.0 miles Calm Calm - N/A   Clear
7:53 AM 37.9°F 33.1°F 83% 30.06 in 10.0 miles WSW 12.7 mph - N/A   Clear
8:53 AM 41.0°F 33.1°F 73% 30.06 in 10.0 miles SW 11.5 mph - N/A   Clear
9:53 AM 44.1°F 34.0°F 68% 30.07 in 10.0 miles WSW 13.8 mph - N/A   Mostly Cloudy
10:53 AM 45.0°F 34.0°F 65% 30.07 in 10.0 miles SW 15.0 mph - N/A   Overcast
11:53 AM 46.9°F 33.1°F 59% 30.06 in 10.0 miles SW 18.4 mph 28.8 mph N/A   Overcast
12:53 PM 46.9°F 30.9°F 54% 30.06 in 10.0 miles SW 16.1 mph 28.8 mph N/A   Overcast
1:53 PM 46.9°F 30.9°F 54% 30.05 in 10.0 miles SSW 19.6 mph 24.2 mph N/A   Overcast
2:53 PM 50.0°F 30.9°F 48% 30.03 in 10.0 miles SW 18.4 mph 27.6 mph N/A   Partly Cloudy
3:53 PM 50.0°F 30.0°F 46% 30.04 in 10.0 miles SW 24.2 mph 29.9 mph N/A   Clear
4:53 PM 46.9°F 30.0°F 52% 30.03 in 10.0 miles SW 19.6 mph 26.5 mph N/A   Clear
5:53 PM 46.0°F 30.9°F 56% 30.03 in 10.0 miles SW 15.0 mph 24.2 mph N/A   Overcast
6:53 PM 45.0°F 30.9°F 58% 30.06 in 10.0 miles SW 17.3 mph 26.5 mph 0.00 in   Overcast
7:53 PM 44.1°F 30.0°F 58% 30.04 in 10.0 miles SW 15.0 mph - N/A   Overcast
8:53 PM 42.1°F 30.0°F 62% 30.04 in 10.0 miles SW 11.5 mph - N/A   Clear
9:53 PM 42.1°F 30.0°F 62% 30.05 in 10.0 miles SW 8.1 mph - N/A   Mostly Cloudy
11:53 PM 42.1°F 32.0°F 67% 30.05 in 10.0 miles SW 13.8 mph - N/A   Clear
Moon Phase
Feb. 21 Feb. 25 Mar. 04 Mar. 11 Mar. 19
Sunrise:06:49 AM (PST) Moon Rise:01:42 PM (PST)
Sunset:05:31 PM (PST) Moon Set:04:06 AM (PST)

Copyright © 2014 The Weather Underground, Inc.